Content
SEND FEEDBACK

Daily
Averages
Monthly
Summary
United States of America

DEER CREEK, MINNESOTA


Home > North America > United States > Minnesota
Elevation: 1366 feet     Latitude: 46 24N     Longitude: 095 09W

WEATHER
 
SELECT A DAY
Number of Records: 449,362;   Date Range: 7/1/96 - 9/3/14
 
SHARE

PRINT THIS DATA

[ ← Previous Day ]
WEATHER ALMANAC - JANUARY 23, 2013
[ Next Day → ]
[ °C ]   °F
Weather ElementAverageHighLow
Temperature-3.1 °F3.2 °F (4:53 am)-16.6 °F (10:14 pm)
Dewpoint-10.6 °F1.4 °F (6:34 am)-23.8 °F (9:53 pm)
Humidity71.1 %92 % (6:34 am)50 % (2:13 pm)
Barometer30.27 in30.57 in (10:53 pm)30.08 in (4:34 am)
Wind Speed9.4 mph24.2 mph (11:33 am)
Wind Gust31.1 mph (1:53 pm)
Weather ElementAverage
Visibility8.2 mi
Wind DirectionSW (229.7 °)

Weather ElementTotal
Precipitation---
Heating Degree Days71.7 (Base 65)
Averaged from 71 records on January 23, 2013
WEATHER CONDITIONS BREAKOUT
WIND DIRECTION BREAKOUT
WEATHER BY HOUR - JANUARY 23, 2013
[ °C ]   °F
Local TimeTemperatureDewpointHumidityBarometerVisibilityWind DirectionWind SpeedGust SpeedPrecipitationEventsConditions
12:34 AM-0.4 °F-5.8 °F78 %30.13 in10.0 miCalmOvercast
12:53 AM-0.4 °F-5.8 °F78 %30.13 in10.0 miCalmOvercast
1:13 AM1.4 °F-4.0 °F78 %30.12 in10.0 miCalmOvercast
1:34 AM1.4 °F-4.0 °F78 %30.12 in10.0 miCalmOvercast
1:53 AM1.4 °F-4.0 °F78 %30.11 in10.0 miCalmOvercast
2:13 AM1.4 °F-4.0 °F78 %30.10 in10.0 miCalmOvercast
2:34 AM1.4 °F-2.2 °F85 %30.11 in10.0 miCalmOvercast
2:53 AM1.4 °F-2.2 °F85 %30.10 in10.0 miCalmOvercast
3:14 AM1.4 °F-2.2 °F85 %30.10 in10.0 miCalmSnowLight Snow
3:34 AM1.4 °F-2.2 °F85 %30.10 in10.0 miCalmSnowLight Snow
3:53 AM1.4 °F-2.2 °F85 %30.09 in10.0 miCalmOvercast
4:14 AM1.4 °F-2.2 °F85 %30.09 in10.0 miCalmOvercast
4:34 AM1.4 °F-2.2 °F85 %30.08 in10.0 miCalmOvercast
4:53 AM3.2 °F-0.4 °F85 %30.08 in10.0 miCalmOvercast
5:14 AM3.2 °F-0.4 °F85 %30.08 in7.0 miCalmSnowLight Snow
5:33 AM3.2 °F-0.4 °F85 %30.08 in4.0 miCalmSnowLight Snow
5:53 AM3.2 °F-0.4 °F85 %30.08 in5.0 miCalmSnowLight Snow
6:13 AM3.2 °F-0.4 °F85 %30.08 in5.0 miCalmSnowLight Snow
6:34 AM3.2 °F1.4 °F92 %30.09 in7.0 miCalmSnowLight Snow
6:54 AM3.2 °F1.4 °F92 %30.09 in7.0 miCalmSnowLight Snow
7:13 AM3.2 °F1.4 °F92 %30.09 in5.0 miWest (280°)8.1 mphSnowLight Snow
7:34 AM3.2 °F1.4 °F92 %30.10 in7.0 miWest (280°)8.1 mphSnowLight Snow
7:54 AM3.2 °F-0.4 °F85 %30.09 in7.0 miWest (280°)6.9 mphSnowLight Snow
8:13 AM3.2 °F-0.4 °F85 %30.09 in10.0 miWest (270°)9.2 mphSnowLight Snow
8:34 AM3.2 °F-0.4 °F85 %30.10 in10.0 miWest (280°)10.4 mphScattered Clouds
8:54 AM3.2 °F-0.4 °F85 %30.12 in10.0 miWNW (290°)11.5 mphScattered Clouds
9:13 AM3.2 °F-0.4 °F85 %30.12 in4.0 miWNW (300°)16.1 mph21.9 mphSnowLight Snow
9:33 AM3.2 °F-0.4 °F85 %30.14 in4.0 miWNW (300°)16.1 mph21.9 mphHaze
9:54 AM3.2 °F-2.2 °F78 %30.16 in7.0 miNW (310°)17.3 mph24.2 mphSnowLight Snow
10:14 AM3.2 °F-5.8 °F66 %30.17 in5.0 miNNW (340°)17.3 mph21.9 mphHaze
10:33 AM1.4 °F-5.8 °F72 %30.19 in5.0 miNW (320°)19.6 mph23.0 mphHaze
10:54 AM1.4 °F-5.8 °F72 %30.20 in7.0 miNW (310°)18.4 mphScattered Clouds
11:14 AM1.4 °F-7.6 °F66 %30.21 in2.5 miNW (310°)21.9 mphHaze
11:33 AM1.4 °F-7.6 °F66 %30.21 in2.0 miNW (310°)24.2 mph28.8 mphHaze
11:54 AM1.4 °F-9.4 °F61 %30.22 in3.0 miNW (320°)20.7 mph27.6 mphHaze
12:14 PM-0.4 °F-9.4 °F66 %30.22 in2.5 miNW (320°)23.0 mph27.6 mphHaze
12:33 PM-0.4 °F-9.4 °F66 %30.24 in4.0 miNW (320°)18.4 mph25.3 mphHaze
12:54 PM-0.4 °F-11.2 °F60 %30.24 in4.0 miNNW (340°)20.7 mph28.8 mphHaze
1:13 PM-0.4 °F-11.2 °F60 %30.25 in7.0 miNW (310°)21.9 mph26.5 mphScattered Clouds
1:33 PM-0.4 °F-11.2 °F60 %30.26 in5.0 miNNW (330°)16.1 mphHaze
1:53 PM-2.2 °F-14.8 °F55 %30.27 in7.0 miNW (320°)20.7 mph31.1 mphScattered Clouds
2:13 PM-2.2 °F-16.6 °F50 %30.28 in7.0 miNNW (330°)17.3 mph26.5 mphClear
2:33 PM-2.2 °F-16.6 °F50 %30.30 in7.0 miNNW (330°)18.4 mph27.6 mphClear
2:53 PM-2.2 °F-16.6 °F50 %30.31 in10.0 miNNW (330°)20.7 mph28.8 mphClear
3:14 PM-2.2 °F-16.6 °F50 %30.33 in7.0 miNorth (350°)18.4 mph27.6 mphClear
3:33 PM-2.2 °F-16.6 °F50 %30.34 in10.0 miNNW (330°)15.0 mph21.9 mphClear
3:54 PM-4.0 °F-16.6 °F55 %30.35 in10.0 miNorth (350°)19.6 mph23.0 mphClear
4:13 PM-5.8 °F-18.4 °F55 %30.37 in10.0 miNNW (330°)17.3 mph23.0 mphClear
4:33 PM-5.8 °F-18.4 °F55 %30.38 in10.0 miNNW (330°)13.8 mphClear
4:54 PM-5.8 °F-18.4 °F55 %30.40 in10.0 miNNW (330°)15.0 mphClear
5:13 PM-5.8 °F-18.4 °F55 %30.41 in10.0 miNNW (330°)11.5 mphClear
5:33 PM-7.6 °F-18.4 °F59 %30.43 in10.0 miNW (320°)11.5 mphClear
5:54 PM-7.6 °F-18.4 °F59 %30.44 in10.0 miNNW (330°)8.1 mphClear
6:13 PM-7.6 °F-20.2 °F54 %30.45 in10.0 miNNW (340°)6.9 mphClear
6:33 PM-9.4 °F-20.2 °F59 %30.46 in10.0 miNNW (340°)6.9 mphClear
6:54 PM-9.4 °F-20.2 °F59 %30.47 in10.0 miNNW (340°)11.5 mphClear
7:13 PM-9.4 °F-20.2 °F59 %30.48 in10.0 miNorth (350°)8.1 mphClear
7:33 PM-11.2 °F-20.2 °F64 %30.49 in10.0 miNorth (350°)9.2 mphClear
7:54 PM-11.2 °F-20.2 °F64 %30.50 in10.0 miNNW (340°)8.1 mphClear
8:14 PM-11.2 °F-20.2 °F64 %30.51 in10.0 miNNW (330°)6.9 mphClear
8:33 PM-13.0 °F-20.2 °F70 %30.52 in10.0 miNNW (340°)8.1 mphClear
8:53 PM-14.8 °F-22.0 °F70 %30.52 in10.0 miNNW (340°)6.9 mphClear
9:14 PM-14.8 °F-22.0 °F70 %30.53 in10.0 miNorth (350°)9.2 mphClear
9:33 PM-14.8 °F-22.0 °F70 %30.53 in10.0 miNNW (340°)3.5 mphClear
9:53 PM-14.8 °F-23.8 °F64 %30.55 in10.0 miNNW (340°)6.9 mphClear
10:14 PM-16.6 °F-23.8 °F70 %30.56 in10.0 miNorth (350°)6.9 mphClear
10:33 PM-14.8 °F-22.0 °F70 %30.56 in10.0 miNorth (360°)8.1 mphClear
10:53 PM-16.6 °F-23.8 °F70 %30.57 in10.0 miNorth (350°)6.9 mphClear
11:13 PM-16.6 °F-23.8 °F70 %30.56 in10.0 miNorth (350°)5.8 mphClear
11:34 PM-16.6 °F-23.8 °F70 %30.57 in10.0 miNorth (360°)6.9 mphClear
11:53 PM-16.6 °F-22.0 °F76 %30.57 in10.0 miNorth (10°)4.6 mphClear
Hourly data recorded from KSAZ, located miles away from Deer Creek, Minnesota







STORIES FROM OUR PARTNERS